Weather in San Severo

Italy     41°41′33″N   15°22′45″E
temp.,
°C
wind,
m/s
gust,
m/s
humid.,
%
clouds,
%
prec.,
mm/h
press.,
hPa
HPBL,
m
16 october, sat
sat1623:00+13nw71263100 0.0 1013805
02:00+13nw71168100 0.0 1013856
05:00+13nw61071100 0.1 1013736
08:00+12wnw41070100 0.1 1015729
11:00+13nw6979100 0.2 1016838
14:00+14nw6877100 0.5 1016895
17:00+15nw467150 0.2 1016888
20:00+13nw228260 0.3 101745
17 october, sun
sun1723:00+12nw1184100 0.0 101840
02:00+12nnw118398 0.1 101838
05:00+12nw1181100 0.0 101858
08:00+13nnw128097 0.0 1019122
11:00+15nw237187 0.1 1020496
14:00+17nnw436472 0.2 10191063
17:00+16n337180 0.1 1019731
20:00+15nnw237894 0.1 1020187
18 october, mon
mon1823:00+15nnw227797 0.1 102178
02:00+14n227789 0.1 102173
05:00+14n238073 0.0 102174
08:00+14nnw238641 0.1 102286
11:00+17nnw337147 0.1 1023796
14:00+18n326423 0.3 1022932
17:00+17n33696 0.0 1022631
20:00+14n2384100 0.1 102477
19 october, tue
tue1923:00+14n238597 0.0 102555
02:00+13nnw228838 0.0 102543
05:00+12nnw229119 0.0 102667
08:00+13nnw228916 0.0 102767
11:00+17nnw336917 0.0 1027744
14:00+19n33555 0.0 1026869
17:00+17n33595 0.0 1026401
20:00+15ne22715 0.0 102721
20 october, wed
wed2023:00+14se11755 0.0 102711
02:00+13se227742 0.0 102714
05:00+13se227679 0.0 102617
08:00+13se34734 0.0 102657
11:00+18sse34500 0.0 1026466
14:00+21s34365 0.0 10241202
17:00+21ssw57405 0.0 1022639
20:00+17sse59600 0.0 1023213